Weather History for Dundee, United Kingdom

Change the Weather History Date:

Friday, February 22, 2013

  Actual Average Record
Temperature  
Mean Temperature 36 °F -  
Max Temperature 37 °F 45 °F 53 °F (2009)
Min Temperature 35 °F 37 °F 32 °F (2004)
Degree Days  
Heating Degree Days 29    
Moisture  
Dew Point 25 °F    
Average Humidity 64    
Maximum Humidity 70    
Minimum Humidity 60    
Precipitation  
Precipitation 0.00 in - - ()
Sea Level Pressure  
Sea Level Pressure 30.31 in    
Wind  
Wind Speed 4 mph ()    
Max Wind Speed 7 mph    
Max Gust Speed -    
Visibility 6.2 miles    
Events      
Averages and records for this station are not official NWS values.
T = Trace of Precipitation, MM = Missing Value Source: Averaged Metar Reports

Daily Weather History Graph

Daily Weather History Graph

Search for Another Location

Airport:

Trip Planner

Search our weather history database for the weather conditions in past years. The results will help you decide how hot, cold, wet, or windy it might be!

Date:

Astronomy

Feb. 22, 2013 Rise Set
Actual Time 7:21 AM GMT 5:30 PM GMT
Civil Twilight 6:43 AM GMT 6:08 PM GMT
Nautical Twilight 5:59 AM GMT 6:52 PM GMT
Astronomical Twilight 5:16 AM GMT 7:36 PM GMT
Moon 2:03 PM GMT (2/22) 5:24 AM GMT (2/22)
Length of Visible Light 11h 25m
Length of Day
10h 08m
Waxing Gibbous, 89% of the Moon is Illuminated
Feb 22
Waxing Gibbous
Feb 25
Full
Mar 4
Last Quarter
Mar 11
New
Mar 19
First Quarter

Hourly Weather History & Observations

Time (GMT) Temp. Windchill Dew Point Humidity Pressure Visibility Wind Dir Wind Speed Gust Speed Precip Events Conditions
7:50 AM 35.6 °F 30.7 °F 26.6 °F 70% 30.30 in 6.2 mi SW 5.8 mph - N/A   Mostly Cloudy
8:20 AM 35.6 °F 30.7 °F 26.6 °F 70% 30.30 in 6.2 mi SSW 5.8 mph - N/A   Mostly Cloudy
8:50 AM 35.6 °F 31.7 °F 24.8 °F 65% 30.30 in 6.2 mi SW 4.6 mph - N/A   Mostly Cloudy
9:20 AM 35.6 °F 31.7 °F 24.8 °F 65% 30.33 in 6.2 mi SW 4.6 mph - N/A   Mostly Cloudy
9:50 AM 35.6 °F 32.8 °F 24.8 °F 65% 30.33 in 6.2 mi WNW 3.5 mph - N/A   Mostly Cloudy
10:20 AM 35.6 °F 32.8 °F 24.8 °F 65% 30.33 in 6.2 mi WNW 3.5 mph - N/A   Mostly Cloudy
10:50 AM 35.6 °F 32.8 °F 24.8 °F 65% 30.33 in 6.2 mi NW 3.5 mph - N/A   Mostly Cloudy
11:20 AM 35.6 °F 31.7 °F 26.6 °F 70% 30.33 in 6.2 mi West 4.6 mph - N/A   Mostly Cloudy
11:50 AM 37.4 °F 33.8 °F 26.6 °F 65% 30.33 in 6.2 mi West 4.6 mph - N/A   Mostly Cloudy
12:20 PM 37.4 °F 33.8 °F 26.6 °F 65% 30.33 in 6.2 mi West 4.6 mph - N/A   Mostly Cloudy
12:50 PM 37.4 °F 33.8 °F 24.8 °F 60% 30.30 in 6.2 mi West 4.6 mph - N/A   Mostly Cloudy
1:20 PM 37.4 °F - 24.8 °F 60% 30.30 in 6.2 mi NNW 2.3 mph - N/A   Mostly Cloudy
1:50 PM 37.4 °F - 24.8 °F 60% 30.30 in 6.2 mi NNW 2.3 mph - N/A   Mostly Cloudy
2:20 PM 37.4 °F 34.9 °F 24.8 °F 60% 30.30 in 6.2 mi NNW 3.5 mph - N/A   Mostly Cloudy
2:50 PM 37.4 °F 34.9 °F 24.8 °F 60% 30.30 in 6.2 mi Variable 3.5 mph - N/A   Mostly Cloudy
3:20 PM 37.4 °F 34.9 °F 24.8 °F 60% 30.30 in 6.2 mi North 3.5 mph - N/A   Mostly Cloudy
3:50 PM 37.4 °F 34.9 °F 24.8 °F 60% 30.27 in 6.2 mi North 3.5 mph - N/A   Mostly Cloudy
4:20 PM 37.4 °F 32.8 °F 24.8 °F 60% 30.27 in 6.2 mi NNE 5.8 mph - N/A   Mostly Cloudy
4:50 PM 37.4 °F 33.8 °F 24.8 °F 60% 30.30 in 6.2 mi North 4.6 mph - N/A   Mostly Cloudy
5:20 PM 37.4 °F 32.8 °F 24.8 °F 60% 30.30 in 6.2 mi North 5.8 mph - N/A   Mostly Cloudy
5:50 PM 37.4 °F 32.8 °F 26.6 °F 65% 30.30 in 6.2 mi North 5.8 mph - N/A   Mostly Cloudy
6:20 PM 35.6 °F 30.7 °F 24.8 °F 65% 30.30 in 6.2 mi North 5.8 mph - N/A   Mostly Cloudy
6:50 PM 35.6 °F 30.7 °F 24.8 °F 65% 30.30 in 6.2 mi North 5.8 mph - N/A   Mostly Cloudy
7:20 PM 35.6 °F 30.7 °F 24.8 °F 65% 30.30 in 6.2 mi NNE 5.8 mph - N/A   Mostly Cloudy
7:50 PM 35.6 °F 30.7 °F 24.8 °F 65% 30.30 in 6.2 mi NNE 5.8 mph - N/A   Mostly Cloudy
8:20 PM 35.6 °F 29.9 °F 24.8 °F 65% 30.30 in 6.2 mi NNE 6.9 mph - N/A   Mostly Cloudy
8:50 PM 35.6 °F 29.9 °F 24.8 °F 65% 30.30 in 6.2 mi NNE 6.9 mph - N/A   Mostly Cloudy
9:20 PM 35.6 °F 30.7 °F 23.0 °F 60% 30.30 in 6.2 mi North 5.8 mph - N/A   Mostly Cloudy